Year,Month,Day,Hour,Minute,Value (Times are PST for temperature in C)
2007,05,04,00,00,6.60
2007,05,04,00,01,6.60
2007,05,04,00,02,6.60
2007,05,04,00,03,6.60
2007,05,04,00,04,6.60
2007,05,04,00,05,6.60
2007,05,04,00,06,6.60
2007,05,04,00,07,6.60
2007,05,04,00,08,6.60
2007,05,04,00,09,6.60
2007,05,04,00,10,6.60
2007,05,04,00,11,6.60
2007,05,04,00,12,6.60
2007,05,04,00,13,6.60
2007,05,04,00,14,6.60
2007,05,04,00,15,6.60
2007,05,04,00,16,6.60
2007,05,04,00,17,6.60
2007,05,04,00,18,6.50
2007,05,04,00,19,6.40
2007,05,04,00,20,6.40
2007,05,04,00,21,6.40
2007,05,04,00,22,6.40
2007,05,04,00,23,6.40
2007,05,04,00,24,6.40
2007,05,04,00,25,6.40
2007,05,04,00,26,6.40
2007,05,04,00,27,6.40
2007,05,04,00,28,6.40
2007,05,04,00,29,6.30
2007,05,04,00,30,6.30
2007,05,04,00,31,6.30
2007,05,04,00,32,6.30
2007,05,04,00,33,6.20
2007,05,04,00,34,6.20
2007,05,04,00,35,6.20
2007,05,04,00,36,6.20
2007,05,04,00,37,6.20
2007,05,04,00,38,6.20
2007,05,04,00,39,6.20
2007,05,04,00,40,6.20
2007,05,04,00,41,6.10
2007,05,04,00,42,6.10
2007,05,04,00,43,6.10
2007,05,04,00,44,6.10
2007,05,04,00,45,6.10
2007,05,04,00,46,6.10
2007,05,04,00,47,6.00
2007,05,04,00,48,6.00
2007,05,04,00,49,6.00
2007,05,04,00,50,6.00
2007,05,04,00,51,6.00
2007,05,04,00,52,6.00
2007,05,04,00,53,6.00
2007,05,04,00,54,6.00
2007,05,04,00,55,6.00
2007,05,04,00,56,6.10
2007,05,04,00,57,6.10
2007,05,04,00,58,6.10
2007,05,04,00,59,6.10
2007,05,04,01,00,6.20
2007,05,04,01,01,6.20
2007,05,04,01,02,6.20
2007,05,04,01,03,6.20
2007,05,04,01,04,6.20
2007,05,04,01,05,6.30
2007,05,04,01,06,6.30
2007,05,04,01,07,6.40
2007,05,04,01,08,6.40
2007,05,04,01,09,6.40
2007,05,04,01,10,6.40
2007,05,04,01,11,6.40
2007,05,04,01,12,6.40
2007,05,04,01,13,6.40
2007,05,04,01,14,6.40
2007,05,04,01,15,6.50
2007,05,04,01,16,6.60
2007,05,04,01,17,6.60
2007,05,04,01,18,6.60
2007,05,04,01,19,6.60
2007,05,04,01,20,6.60
2007,05,04,01,21,6.60
2007,05,04,01,22,6.60
2007,05,04,01,23,6.60
2007,05,04,01,24,6.60
2007,05,04,01,25,6.60
2007,05,04,01,26,6.60
2007,05,04,01,27,6.60
2007,05,04,01,28,6.60
2007,05,04,01,29,6.60
2007,05,04,01,30,6.60
2007,05,04,01,31,6.60
2007,05,04,01,32,6.60
2007,05,04,01,33,6.60
2007,05,04,01,34,6.60
2007,05,04,01,35,6.60
2007,05,04,01,36,6.60
2007,05,04,01,37,6.60
2007,05,04,01,38,6.60
2007,05,04,01,39,6.60
2007,05,04,01,40,6.60
2007,05,04,01,41,6.60
2007,05,04,01,42,6.60
2007,05,04,01,43,6.60
2007,05,04,01,44,6.60
2007,05,04,01,45,6.50
2007,05,04,01,46,6.40
2007,05,04,01,47,6.40
2007,05,04,01,48,6.40
2007,05,04,01,49,6.40
2007,05,04,01,50,6.30
2007,05,04,01,51,6.30
2007,05,04,01,52,6.30
2007,05,04,01,53,6.30
2007,05,04,01,54,6.30
2007,05,04,01,55,6.30
2007,05,04,01,56,6.20
2007,05,04,01,57,6.20
2007,05,04,01,58,6.20
2007,05,04,01,59,6.20
2007,05,04,02,00,6.10
2007,05,04,02,01,6.10
2007,05,04,02,02,6.10
2007,05,04,02,03,6.00
2007,05,04,02,04,6.00
2007,05,04,02,05,5.90
2007,05,04,02,06,5.90
2007,05,04,02,07,5.90
2007,05,04,02,08,5.80
2007,05,04,02,09,5.80
2007,05,04,02,10,5.80
2007,05,04,02,11,5.70
2007,05,04,02,12,5.70
2007,05,04,02,13,5.70
2007,05,04,02,14,5.70
2007,05,04,02,15,5.70
2007,05,04,02,16,5.70
2007,05,04,02,17,5.70
2007,05,04,02,18,5.70
2007,05,04,02,19,5.60
2007,05,04,02,20,5.60
2007,05,04,02,21,5.60
2007,05,04,02,22,5.60
2007,05,04,02,23,5.50
2007,05,04,02,24,5.50
2007,05,04,02,25,5.50
2007,05,04,02,26,5.40
2007,05,04,02,27,5.40
2007,05,04,02,28,5.40
2007,05,04,02,29,5.40
2007,05,04,02,30,5.30
2007,05,04,02,31,5.30
2007,05,04,02,32,5.30
2007,05,04,02,33,5.30
2007,05,04,02,34,5.30
2007,05,04,02,35,5.30
2007,05,04,02,36,5.20
2007,05,04,02,37,5.20
2007,05,04,02,38,5.20
2007,05,04,02,39,5.20
2007,05,04,02,40,5.20
2007,05,04,02,41,5.10
2007,05,04,02,42,5.10
2007,05,04,02,43,5.10
2007,05,04,02,44,5.10
2007,05,04,02,45,5.10
2007,05,04,02,46,5.10
2007,05,04,02,47,5.10
2007,05,04,02,48,5.10
2007,05,04,02,49,5.10
2007,05,04,02,50,5.00
2007,05,04,02,51,4.90
2007,05,04,02,52,4.90
2007,05,04,02,53,4.90
2007,05,04,02,54,4.90
2007,05,04,02,55,4.90
2007,05,04,02,56,4.90
2007,05,04,02,57,4.90
2007,05,04,02,58,4.90
2007,05,04,02,59,4.90
2007,05,04,03,00,4.90
2007,05,04,03,01,4.90
2007,05,04,03,02,4.90
2007,05,04,03,03,4.90
2007,05,04,03,04,4.90
2007,05,04,03,05,4.90
2007,05,04,03,06,4.90
2007,05,04,03,07,4.90
2007,05,04,03,08,4.90
2007,05,04,03,09,5.00
2007,05,04,03,10,5.10
2007,05,04,03,11,5.10
2007,05,04,03,12,5.10
2007,05,04,03,13,5.20
2007,05,04,03,14,5.20
2007,05,04,03,15,5.30
2007,05,04,03,16,5.40
2007,05,04,03,17,5.50
2007,05,04,03,18,5.60
2007,05,04,03,19,5.60
2007,05,04,03,20,5.70
2007,05,04,03,21,5.80
2007,05,04,03,22,5.90
2007,05,04,03,23,5.90
2007,05,04,03,24,6.00
2007,05,04,03,25,6.10
2007,05,04,03,26,6.10
2007,05,04,03,27,6.20
2007,05,04,03,28,6.20
2007,05,04,03,29,6.20
2007,05,04,03,30,6.20
2007,05,04,03,31,6.30
2007,05,04,03,32,6.30
2007,05,04,03,33,6.30
2007,05,04,03,34,6.30
2007,05,04,03,35,6.30
2007,05,04,03,36,6.30
2007,05,04,03,37,6.40
2007,05,04,03,38,6.40
2007,05,04,03,39,6.40
2007,05,04,03,40,6.40
2007,05,04,03,41,6.40
2007,05,04,03,42,6.40
2007,05,04,03,43,6.40
2007,05,04,03,44,6.40
2007,05,04,03,45,6.40
2007,05,04,03,46,6.40
2007,05,04,03,47,6.40
2007,05,04,03,48,6.40
2007,05,04,03,49,6.40
2007,05,04,03,50,6.40
2007,05,04,03,51,6.40
2007,05,04,03,52,6.50
2007,05,04,03,53,6.60
2007,05,04,03,54,6.60
2007,05,04,03,55,6.60
2007,05,04,03,56,6.60
2007,05,04,03,57,6.60
2007,05,04,03,58,6.60
2007,05,04,03,59,6.60
2007,05,04,04,00,6.50
2007,05,04,04,01,6.40
2007,05,04,04,02,6.40
2007,05,04,04,03,6.40
2007,05,04,04,04,6.40
2007,05,04,04,05,6.40
2007,05,04,04,06,6.40
2007,05,04,04,07,6.40
2007,05,04,04,08,6.40
2007,05,04,04,09,6.40
2007,05,04,04,10,6.40
2007,05,04,04,11,6.40
2007,05,04,04,12,6.40
2007,05,04,04,13,6.40
2007,05,04,04,14,6.40
2007,05,04,04,15,6.40
2007,05,04,04,16,6.40
2007,05,04,04,17,6.40
2007,05,04,04,18,6.40
2007,05,04,04,19,6.30
2007,05,04,04,20,6.30
2007,05,04,04,21,6.30
2007,05,04,04,22,6.30
2007,05,04,04,23,6.30
2007,05,04,04,24,6.30
2007,05,04,04,25,6.30
2007,05,04,04,26,6.30
2007,05,04,04,27,6.30
2007,05,04,04,28,6.20
2007,05,04,04,29,6.20
2007,05,04,04,30,6.20
2007,05,04,04,31,6.20
2007,05,04,04,32,6.20
2007,05,04,04,33,6.20
2007,05,04,04,34,6.30
2007,05,04,04,35,6.30
2007,05,04,04,36,6.30
2007,05,04,04,37,6.30
2007,05,04,04,38,6.30
2007,05,04,04,39,6.30
2007,05,04,04,40,6.30
2007,05,04,04,41,6.30
2007,05,04,04,42,6.30
2007,05,04,04,43,6.30
2007,05,04,04,44,6.30
2007,05,04,04,45,6.40
2007,05,04,04,46,6.40
2007,05,04,04,47,6.40
2007,05,04,04,48,6.40
2007,05,04,04,49,6.40
2007,05,04,04,50,6.40
2007,05,04,04,51,6.40
2007,05,04,04,52,6.40
2007,05,04,04,53,6.40
2007,05,04,04,54,6.40
2007,05,04,04,55,6.40
2007,05,04,04,56,6.40
2007,05,04,04,57,6.40
2007,05,04,04,58,6.40
2007,05,04,04,59,6.40
2007,05,04,05,00,6.40
2007,05,04,05,01,6.40
2007,05,04,05,02,6.40
2007,05,04,05,03,6.40
2007,05,04,05,04,6.40
2007,05,04,05,05,6.40
2007,05,04,05,06,6.40
2007,05,04,05,07,6.40
2007,05,04,05,08,6.40
2007,05,04,05,09,6.40
2007,05,04,05,10,6.40
2007,05,04,05,11,6.40
2007,05,04,05,12,6.40
2007,05,04,05,13,6.40
2007,05,04,05,14,6.40
2007,05,04,05,15,6.40
2007,05,04,05,16,6.40
2007,05,04,05,17,6.40
2007,05,04,05,18,6.40
2007,05,04,05,19,6.40
2007,05,04,05,20,6.40
2007,05,04,05,21,6.40
2007,05,04,05,22,6.40
2007,05,04,05,23,6.40
2007,05,04,05,24,6.50
2007,05,04,05,25,6.60
2007,05,04,05,26,6.60
2007,05,04,05,27,6.60
2007,05,04,05,28,6.60
2007,05,04,05,29,6.60
2007,05,04,05,30,6.60
2007,05,04,05,31,6.60
2007,05,04,05,32,6.60
2007,05,04,05,33,6.60
2007,05,04,05,34,6.60
2007,05,04,05,35,6.60
2007,05,04,05,36,6.60
2007,05,04,05,37,6.60
2007,05,04,05,38,6.60
2007,05,04,05,39,6.60
2007,05,04,05,40,6.60
2007,05,04,05,41,6.60
2007,05,04,05,42,6.60
2007,05,04,05,43,6.60
2007,05,04,05,44,6.60
2007,05,04,05,45,6.60
2007,05,04,05,46,6.60
2007,05,04,05,47,6.60
2007,05,04,05,48,6.60
2007,05,04,05,49,6.60
2007,05,04,05,50,6.60
2007,05,04,05,51,6.60
2007,05,04,05,52,6.70
2007,05,04,05,53,6.70
2007,05,04,05,54,6.70
2007,05,04,05,55,6.70
2007,05,04,05,56,6.70
2007,05,04,05,57,6.70
2007,05,04,05,58,6.70
2007,05,04,05,59,6.70
2007,05,04,06,00,6.70
2007,05,04,06,01,6.70
2007,05,04,06,02,6.70
2007,05,04,06,03,6.80
2007,05,04,06,04,6.80
2007,05,04,06,05,6.80
2007,05,04,06,06,6.80
2007,05,04,06,07,6.80
2007,05,04,06,08,6.80
2007,05,04,06,09,6.80
2007,05,04,06,10,6.80
2007,05,04,06,11,6.80
2007,05,04,06,12,6.80
2007,05,04,06,13,6.80
2007,05,04,06,14,6.80
2007,05,04,06,15,6.80
2007,05,04,06,16,6.80
2007,05,04,06,17,6.80
2007,05,04,06,18,6.80
2007,05,04,06,19,6.80
2007,05,04,06,20,6.80
2007,05,04,06,21,6.80
2007,05,04,06,22,6.80
2007,05,04,06,23,6.80
2007,05,04,06,24,6.80
2007,05,04,06,25,6.80
2007,05,04,06,26,6.80
2007,05,04,06,27,6.80
2007,05,04,06,28,6.80
2007,05,04,06,29,6.80
2007,05,04,06,30,6.80
2007,05,04,06,31,6.70
2007,05,04,06,32,6.70
2007,05,04,06,33,6.70
2007,05,04,06,34,6.70
2007,05,04,06,35,6.70
2007,05,04,06,36,6.70
2007,05,04,06,37,6.60
2007,05,04,06,38,6.60
2007,05,04,06,39,6.60
2007,05,04,06,40,6.60
2007,05,04,06,41,6.60
2007,05,04,06,42,6.60
2007,05,04,06,43,6.60
2007,05,04,06,44,6.60
2007,05,04,06,45,6.60
2007,05,04,06,46,6.50
2007,05,04,06,47,6.40
2007,05,04,06,48,6.40
2007,05,04,06,49,6.40
2007,05,04,06,50,6.40
2007,05,04,06,51,6.40
2007,05,04,06,52,6.40
2007,05,04,06,53,6.40
2007,05,04,06,54,6.40
2007,05,04,06,55,6.40
2007,05,04,06,56,6.40
2007,05,04,06,57,6.40
2007,05,04,06,58,6.40
2007,05,04,06,59,6.40
2007,05,04,07,00,6.40
2007,05,04,07,01,6.40
2007,05,04,07,02,6.40
2007,05,04,07,03,6.40
2007,05,04,07,04,6.40
2007,05,04,07,05,6.40
2007,05,04,07,06,6.40
2007,05,04,07,07,6.40
2007,05,04,07,08,6.40
2007,05,04,07,09,6.40
2007,05,04,07,10,6.40
2007,05,04,07,11,6.40
2007,05,04,07,12,6.40
2007,05,04,07,13,6.40
2007,05,04,07,14,6.40
2007,05,04,07,15,6.40
2007,05,04,07,16,6.40
2007,05,04,07,17,6.40
2007,05,04,07,18,6.40
2007,05,04,07,19,6.40
2007,05,04,07,20,6.50
2007,05,04,07,21,6.60
2007,05,04,07,22,6.60
2007,05,04,07,23,6.70
2007,05,04,07,24,6.80
2007,05,04,07,25,6.80
2007,05,04,07,26,6.90
2007,05,04,07,27,7.00
2007,05,04,07,28,7.10
2007,05,04,07,29,7.20
2007,05,04,07,30,7.30
2007,05,04,07,31,7.40
2007,05,04,07,32,7.40
2007,05,04,07,33,7.50
2007,05,04,07,34,7.60
2007,05,04,07,35,7.60
2007,05,04,07,36,7.70
2007,05,04,07,37,7.70
2007,05,04,07,38,7.80
2007,05,04,07,39,7.80
2007,05,04,07,40,7.80
2007,05,04,07,41,7.90
2007,05,04,07,42,7.90
2007,05,04,07,43,8.00
2007,05,04,07,44,8.10
2007,05,04,07,45,8.20
2007,05,04,07,46,8.20
2007,05,04,07,47,8.30
2007,05,04,07,48,8.30
2007,05,04,07,49,8.40
2007,05,04,07,50,8.40
2007,05,04,07,51,8.50
2007,05,04,07,52,8.50
2007,05,04,07,53,8.60
2007,05,04,07,54,8.60
2007,05,04,07,55,8.70
2007,05,04,07,56,8.70
2007,05,04,07,57,8.80
2007,05,04,07,58,8.90
2007,05,04,07,59,8.90
2007,05,04,08,00,9.00
2007,05,04,08,01,9.10
2007,05,04,08,02,9.20
2007,05,04,08,03,9.20
2007,05,04,08,04,9.30
2007,05,04,08,05,9.40
2007,05,04,08,06,9.40
2007,05,04,08,07,9.40
2007,05,04,08,08,9.40
2007,05,04,08,09,9.40
2007,05,04,08,10,9.50
2007,05,04,08,11,9.50
2007,05,04,08,12,9.40
2007,05,04,08,13,9.40
2007,05,04,08,14,9.40
2007,05,04,08,15,9.40
2007,05,04,08,16,9.40
2007,05,04,08,17,9.40
2007,05,04,08,18,9.40
2007,05,04,08,19,9.40
2007,05,04,08,20,9.40
2007,05,04,08,21,9.30
2007,05,04,08,22,9.30
2007,05,04,08,23,9.30
2007,05,04,08,24,9.40
2007,05,04,08,25,9.40
2007,05,04,08,26,9.40
2007,05,04,08,27,9.40
2007,05,04,08,28,9.40
2007,05,04,08,29,9.50
2007,05,04,08,30,9.50
2007,05,04,08,31,9.50
2007,05,04,08,32,9.60
2007,05,04,08,33,9.60
2007,05,04,08,34,9.60
2007,05,04,08,35,9.60
2007,05,04,08,36,9.60
2007,05,04,08,37,9.60
2007,05,04,08,38,9.60
2007,05,04,08,39,9.70
2007,05,04,08,40,9.70
2007,05,04,08,41,9.80
2007,05,04,08,42,9.90
2007,05,04,08,43,9.90
2007,05,04,08,44,9.90
2007,05,04,08,45,9.90
2007,05,04,08,46,9.90
2007,05,04,08,47,9.80
2007,05,04,08,48,9.80
2007,05,04,08,49,9.70
2007,05,04,08,50,9.60
2007,05,04,08,51,9.50
2007,05,04,08,52,9.50
2007,05,04,08,53,9.60
2007,05,04,08,54,9.60
2007,05,04,08,55,9.70
2007,05,04,08,56,9.70
2007,05,04,08,57,9.70
2007,05,04,08,58,9.70
2007,05,04,08,59,9.80
2007,05,04,09,00,9.80
2007,05,04,09,01,9.90
2007,05,04,09,02,9.90
2007,05,04,09,03,9.90
2007,05,04,09,04,9.90
2007,05,04,09,05,9.90
2007,05,04,09,06,9.90
2007,05,04,09,07,9.90
2007,05,04,09,08,10.00
2007,05,04,09,09,10.10
2007,05,04,09,10,10.10
2007,05,04,09,11,10.10
2007,05,04,09,12,10.20
2007,05,04,09,13,10.20
2007,05,04,09,14,10.20
2007,05,04,09,15,10.20
2007,05,04,09,16,10.20
2007,05,04,09,17,10.20
2007,05,04,09,18,10.30
2007,05,04,09,19,10.30
2007,05,04,09,20,10.40
2007,05,04,09,21,10.40
2007,05,04,09,22,10.50
2007,05,04,09,23,10.60
2007,05,04,09,24,10.50
2007,05,04,09,25,10.40
2007,05,04,09,26,10.40
2007,05,04,09,27,10.40
2007,05,04,09,28,10.30
2007,05,04,09,29,10.30
2007,05,04,09,30,10.20
2007,05,04,09,31,10.20
2007,05,04,09,32,10.10
2007,05,04,09,33,10.10
2007,05,04,09,34,10.10
2007,05,04,09,35,10.10
2007,05,04,09,36,10.10
2007,05,04,09,37,10.10
2007,05,04,09,38,10.10
2007,05,04,09,39,10.10
2007,05,04,09,40,10.10
2007,05,04,09,41,10.10
2007,05,04,09,42,10.10
2007,05,04,09,43,10.10
2007,05,04,09,44,10.10
2007,05,04,09,45,10.10
2007,05,04,09,46,10.10
2007,05,04,09,47,10.10
2007,05,04,09,48,10.10
2007,05,04,09,49,10.10
2007,05,04,09,50,10.10
2007,05,04,09,51,10.10
2007,05,04,09,52,10.10
2007,05,04,09,53,10.10
2007,05,04,09,54,10.10
2007,05,04,09,55,10.10
2007,05,04,09,56,10.10
2007,05,04,09,57,10.10
2007,05,04,09,58,10.10
2007,05,04,09,59,10.10
2007,05,04,10,00,10.10
2007,05,04,10,01,10.20
2007,05,04,10,02,10.30
2007,05,04,10,03,10.40
2007,05,04,10,04,10.50
2007,05,04,10,05,10.60
2007,05,04,10,06,10.70
2007,05,04,10,07,10.80
2007,05,04,10,08,10.90
2007,05,04,10,09,10.90
2007,05,04,10,10,11.00
2007,05,04,10,11,11.10
2007,05,04,10,12,11.10
2007,05,04,10,13,11.10
2007,05,04,10,14,11.20
2007,05,04,10,15,11.20
2007,05,04,10,16,11.20
2007,05,04,10,17,11.20
2007,05,04,10,18,11.20
2007,05,04,10,19,11.00
2007,05,04,10,20,10.90
2007,05,04,10,21,10.80
2007,05,04,10,22,10.70
2007,05,04,10,23,10.70
2007,05,04,10,24,10.60
2007,05,04,10,25,10.60
2007,05,04,10,26,10.60
2007,05,04,10,27,10.60
2007,05,04,10,28,10.50
2007,05,04,10,29,10.40
2007,05,04,10,30,10.40
2007,05,04,10,31,10.40
2007,05,04,10,32,10.40
2007,05,04,10,33,10.40
2007,05,04,10,34,10.40
2007,05,04,10,35,10.40
2007,05,04,10,36,10.40
2007,05,04,10,37,10.40
2007,05,04,10,38,10.40
2007,05,04,10,39,10.40
2007,05,04,10,40,10.60
2007,05,04,10,41,10.60
2007,05,04,10,42,10.50
2007,05,04,10,43,10.50
2007,05,04,10,44,10.40
2007,05,04,10,45,10.50
2007,05,04,10,46,10.60
2007,05,04,10,47,10.60
2007,05,04,10,48,10.60
2007,05,04,10,49,10.60
2007,05,04,10,50,10.60
2007,05,04,10,51,10.70
2007,05,04,10,52,10.80
2007,05,04,10,53,10.70
2007,05,04,10,54,10.70
2007,05,04,10,55,10.60
2007,05,04,10,56,10.60
2007,05,04,10,57,10.60
2007,05,04,10,58,10.60
2007,05,04,10,59,10.70
2007,05,04,11,00,10.70
2007,05,04,11,01,10.70
2007,05,04,11,02,10.70
2007,05,04,11,03,10.70
2007,05,04,11,04,10.70
2007,05,04,11,05,10.70
2007,05,04,11,06,10.70
2007,05,04,11,07,10.70
2007,05,04,11,08,10.80
2007,05,04,11,09,10.90
2007,05,04,11,10,10.90
2007,05,04,11,11,11.00
2007,05,04,11,12,11.10
2007,05,04,11,13,11.30
2007,05,04,11,14,11.40
2007,05,04,11,15,11.40
2007,05,04,11,16,11.40
2007,05,04,11,17,11.50
2007,05,04,11,18,11.60
2007,05,04,11,19,11.70
2007,05,04,11,20,11.70
2007,05,04,11,21,11.70
2007,05,04,11,22,11.80
2007,05,04,11,23,11.80
2007,05,04,11,24,11.80
2007,05,04,11,25,11.90
2007,05,04,11,26,12.00
2007,05,04,11,27,12.20
2007,05,04,11,28,12.40
2007,05,04,11,29,12.60
2007,05,04,11,30,12.70
2007,05,04,11,31,12.70
2007,05,04,11,32,12.70
2007,05,04,11,33,12.80
2007,05,04,11,34,12.80
2007,05,04,11,35,12.80
2007,05,04,11,36,12.90
2007,05,04,11,37,13.00
2007,05,04,11,38,13.10
2007,05,04,11,39,13.20
2007,05,04,11,40,13.10
2007,05,04,11,41,13.10
2007,05,04,11,42,13.10
2007,05,04,11,43,13.10
2007,05,04,11,44,13.20
2007,05,04,11,45,13.20
2007,05,04,11,46,13.20
2007,05,04,11,47,13.30
2007,05,04,11,48,13.30
2007,05,04,11,49,13.40
2007,05,04,11,50,13.40
2007,05,04,11,51,13.40
2007,05,04,11,52,13.30
2007,05,04,11,53,13.10
2007,05,04,11,54,13.10
2007,05,04,11,55,13.00
2007,05,04,11,56,13.00
2007,05,04,11,57,13.00
2007,05,04,11,58,12.90
2007,05,04,11,59,12.90
2007,05,04,12,00,13.00
2007,05,04,12,01,13.10
2007,05,04,12,02,13.00
2007,05,04,12,03,13.10
2007,05,04,12,04,13.00
2007,05,04,12,05,12.90
2007,05,04,12,06,12.80
2007,05,04,12,07,12.90
2007,05,04,12,08,12.90
2007,05,04,12,09,12.90
2007,05,04,12,10,12.90
2007,05,04,12,11,12.90
2007,05,04,12,12,12.80
2007,05,04,12,13,12.90
2007,05,04,12,14,13.00
2007,05,04,12,15,13.00
2007,05,04,12,16,13.10
2007,05,04,12,17,13.00
2007,05,04,12,18,12.90
2007,05,04,12,19,12.80
2007,05,04,12,20,12.80
2007,05,04,12,21,12.90
2007,05,04,12,22,12.90
2007,05,04,12,23,12.90
2007,05,04,12,24,13.00
2007,05,04,12,25,13.00
2007,05,04,12,26,13.00
2007,05,04,12,27,13.10
2007,05,04,12,28,13.10
2007,05,04,12,29,13.20
2007,05,04,12,30,13.20
2007,05,04,12,31,13.30
2007,05,04,12,32,13.30
2007,05,04,12,33,13.30
2007,05,04,12,34,13.30
2007,05,04,12,35,13.20
2007,05,04,12,36,13.20
2007,05,04,12,37,13.20
2007,05,04,12,38,13.10
2007,05,04,12,39,13.20
2007,05,04,12,40,13.20
2007,05,04,12,41,13.20
2007,05,04,12,42,13.30
2007,05,04,12,43,13.30
2007,05,04,12,44,13.30
2007,05,04,12,45,13.30
2007,05,04,12,46,13.30
2007,05,04,12,47,13.30
2007,05,04,12,48,13.30
2007,05,04,12,49,13.30
2007,05,04,12,50,13.30
2007,05,04,12,51,13.30
2007,05,04,12,52,13.30
2007,05,04,12,53,13.40
2007,05,04,12,54,13.50
2007,05,04,12,55,13.50
2007,05,04,12,56,13.50
2007,05,04,12,57,13.50
2007,05,04,12,58,13.50
2007,05,04,12,59,13.50
2007,05,04,13,00,13.50
2007,05,04,13,01,13.50
2007,05,04,13,02,13.40
2007,05,04,13,03,13.40
2007,05,04,13,04,13.30
2007,05,04,13,05,13.30
2007,05,04,13,06,13.20
2007,05,04,13,07,13.10
2007,05,04,13,08,13.10
2007,05,04,13,09,13.20
2007,05,04,13,10,13.20
2007,05,04,13,11,13.20
2007,05,04,13,12,13.30
2007,05,04,13,13,13.20
2007,05,04,13,14,13.20
2007,05,04,13,15,13.20
2007,05,04,13,16,13.30
2007,05,04,13,17,13.20
2007,05,04,13,18,13.20
2007,05,04,13,19,13.30
2007,05,04,13,20,13.30
2007,05,04,13,21,13.30
2007,05,04,13,22,13.30
2007,05,04,13,23,13.50
2007,05,04,13,24,13.60
2007,05,04,13,25,13.60
2007,05,04,13,26,13.60
2007,05,04,13,27,13.60
2007,05,04,13,28,13.60
2007,05,04,13,29,13.60
2007,05,04,13,30,13.50
2007,05,04,13,31,13.40
2007,05,04,13,32,13.30
2007,05,04,13,33,13.30
2007,05,04,13,34,13.30
2007,05,04,13,35,13.20
2007,05,04,13,36,13.10
2007,05,04,13,37,13.10
2007,05,04,13,38,13.10
2007,05,04,13,39,13.10
2007,05,04,13,40,13.20
2007,05,04,13,41,13.20
2007,05,04,13,42,13.30
2007,05,04,13,43,13.30
2007,05,04,13,44,13.30
2007,05,04,13,45,13.30
2007,05,04,13,46,13.30
2007,05,04,13,47,13.30
2007,05,04,13,48,13.30
2007,05,04,13,49,13.40
2007,05,04,13,50,13.50
2007,05,04,13,51,13.50
2007,05,04,13,52,13.50
2007,05,04,13,53,13.40
2007,05,04,13,54,13.50
2007,05,04,13,55,13.60
2007,05,04,13,56,13.60
2007,05,04,13,57,13.60
2007,05,04,13,58,13.50
2007,05,04,13,59,13.50
2007,05,04,14,00,13.50
2007,05,04,14,01,13.50
2007,05,04,14,02,13.50
2007,05,04,14,03,13.60
2007,05,04,14,04,13.60
2007,05,04,14,05,13.70
2007,05,04,14,06,13.70
2007,05,04,14,07,13.70
2007,05,04,14,08,13.70
2007,05,04,14,09,13.80
2007,05,04,14,10,13.80
2007,05,04,14,11,13.80
2007,05,04,14,12,13.80
2007,05,04,14,13,13.80
2007,05,04,14,14,13.80
2007,05,04,14,15,13.70
2007,05,04,14,16,13.60
2007,05,04,14,17,13.60
2007,05,04,14,18,13.70
2007,05,04,14,19,13.70
2007,05,04,14,20,13.70
2007,05,04,14,21,13.70
2007,05,04,14,22,13.70
2007,05,04,14,23,13.80
2007,05,04,14,24,13.80
2007,05,04,14,25,13.80
2007,05,04,14,26,13.80
2007,05,04,14,27,13.80
2007,05,04,14,28,13.80
2007,05,04,14,29,13.80
2007,05,04,14,30,13.80
2007,05,04,14,31,13.90
2007,05,04,14,32,13.80
2007,05,04,14,33,13.80
2007,05,04,14,34,13.60
2007,05,04,14,35,13.50
2007,05,04,14,36,13.60
2007,05,04,14,37,13.60
2007,05,04,14,38,13.60
2007,05,04,14,39,13.60
2007,05,04,14,40,13.60
2007,05,04,14,41,13.70
2007,05,04,14,42,13.80
2007,05,04,14,43,13.90
2007,05,04,14,44,14.00
2007,05,04,14,45,14.00
2007,05,04,14,46,14.10
2007,05,04,14,47,14.10
2007,05,04,14,48,14.10
2007,05,04,14,49,14.00
2007,05,04,14,50,14.00
2007,05,04,14,51,13.80
2007,05,04,14,52,13.70
2007,05,04,14,53,13.70
2007,05,04,14,54,13.70
2007,05,04,14,55,13.70
2007,05,04,14,56,13.60
2007,05,04,14,57,13.50
2007,05,04,14,58,13.30
2007,05,04,14,59,13.30
2007,05,04,15,00,13.40
2007,05,04,15,01,13.40
2007,05,04,15,02,13.40
2007,05,04,15,03,13.40
2007,05,04,15,04,13.30
2007,05,04,15,05,13.20
2007,05,04,15,06,13.20
2007,05,04,15,07,13.10
2007,05,04,15,08,13.10
2007,05,04,15,09,13.10
2007,05,04,15,10,13.10
2007,05,04,15,11,13.10
2007,05,04,15,12,13.20
2007,05,04,15,13,13.30
2007,05,04,15,14,13.30
2007,05,04,15,15,13.40
2007,05,04,15,16,13.40
2007,05,04,15,17,13.40
2007,05,04,15,18,13.40
2007,05,04,15,19,13.40
2007,05,04,15,20,13.30
2007,05,04,15,21,13.30
2007,05,04,15,22,13.30
2007,05,04,15,23,13.30
2007,05,04,15,24,13.20
2007,05,04,15,25,13.10
2007,05,04,15,26,13.10
2007,05,04,15,27,13.10
2007,05,04,15,28,13.00
2007,05,04,15,29,13.10
2007,05,04,15,30,13.10
2007,05,04,15,31,13.10
2007,05,04,15,32,13.10
2007,05,04,15,33,13.20
2007,05,04,15,34,13.30
2007,05,04,15,35,13.40
2007,05,04,15,36,13.50
2007,05,04,15,37,13.60
2007,05,04,15,38,13.70
2007,05,04,15,39,13.80
2007,05,04,15,40,13.80
2007,05,04,15,41,13.80
2007,05,04,15,42,13.80
2007,05,04,15,43,13.70
2007,05,04,15,44,13.60
2007,05,04,15,45,13.50
2007,05,04,15,46,13.40
2007,05,04,15,47,13.50
2007,05,04,15,48,13.50
2007,05,04,15,49,13.50
2007,05,04,15,50,13.50
2007,05,04,15,51,13.40
2007,05,04,15,52,13.50
2007,05,04,15,53,13.50
2007,05,04,15,54,13.50
2007,05,04,15,55,13.40
2007,05,04,15,56,13.40
2007,05,04,15,57,13.20
2007,05,04,15,58,13.10
2007,05,04,15,59,13.10
2007,05,04,16,00,13.20
2007,05,04,16,01,13.20
2007,05,04,16,02,13.30
2007,05,04,16,03,13.30
2007,05,04,16,04,13.30
2007,05,04,16,05,13.20
2007,05,04,16,06,13.20
2007,05,04,16,07,13.20
2007,05,04,16,08,13.10
2007,05,04,16,09,13.00
2007,05,04,16,10,13.00
2007,05,04,16,11,13.00
2007,05,04,16,12,13.10
2007,05,04,16,13,13.20
2007,05,04,16,14,13.30
2007,05,04,16,15,13.30
2007,05,04,16,16,13.40
2007,05,04,16,17,13.40
2007,05,04,16,18,13.50
2007,05,04,16,19,13.40
2007,05,04,16,20,13.40
2007,05,04,16,21,13.30
2007,05,04,16,22,13.20
2007,05,04,16,23,13.20
2007,05,04,16,24,13.10
2007,05,04,16,25,13.10
2007,05,04,16,26,13.10
2007,05,04,16,27,13.10
2007,05,04,16,28,13.10
2007,05,04,16,29,13.10
2007,05,04,16,30,13.10
2007,05,04,16,31,13.10
2007,05,04,16,32,13.10
2007,05,04,16,33,13.00
2007,05,04,16,34,12.90
2007,05,04,16,35,12.80
2007,05,04,16,36,12.80
2007,05,04,16,37,12.80
2007,05,04,16,38,12.70
2007,05,04,16,39,12.60
2007,05,04,16,40,12.50
2007,05,04,16,41,12.50
2007,05,04,16,42,12.50
2007,05,04,16,43,12.60
2007,05,04,16,44,12.60
2007,05,04,16,45,12.60
2007,05,04,16,46,12.60
2007,05,04,16,47,12.60
2007,05,04,16,48,12.70
2007,05,04,16,49,12.70
2007,05,04,16,50,12.70
2007,05,04,16,51,12.60
2007,05,04,16,52,12.50
2007,05,04,16,53,12.50
2007,05,04,16,54,12.50
2007,05,04,16,55,12.40
2007,05,04,16,56,12.40
2007,05,04,16,57,12.50
2007,05,04,16,58,12.50
2007,05,04,16,59,12.50
2007,05,04,17,00,12.50
2007,05,04,17,01,12.40
2007,05,04,17,02,12.40
2007,05,04,17,03,12.40
2007,05,04,17,04,12.50
2007,05,04,17,05,12.50
2007,05,04,17,06,12.50
2007,05,04,17,07,12.50
2007,05,04,17,08,12.50
2007,05,04,17,09,12.50
2007,05,04,17,10,12.50
2007,05,04,17,11,12.50
2007,05,04,17,12,12.60
2007,05,04,17,13,12.60
2007,05,04,17,14,12.60
2007,05,04,17,15,12.60
2007,05,04,17,16,12.50
2007,05,04,17,17,12.50
2007,05,04,17,18,12.40
2007,05,04,17,19,12.40
2007,05,04,17,20,12.30
2007,05,04,17,21,12.30
2007,05,04,17,22,12.30
2007,05,04,17,23,12.30
2007,05,04,17,24,12.30
2007,05,04,17,25,12.20
2007,05,04,17,26,12.10
2007,05,04,17,27,12.20
2007,05,04,17,28,12.20
2007,05,04,17,29,12.20
2007,05,04,17,30,12.10
2007,05,04,17,31,12.10
2007,05,04,17,32,12.20
2007,05,04,17,33,12.20
2007,05,04,17,34,12.30
2007,05,04,17,35,12.30
2007,05,04,17,36,12.30
2007,05,04,17,37,12.40
2007,05,04,17,38,12.50
2007,05,04,17,39,12.50
2007,05,04,17,40,12.50
2007,05,04,17,41,12.50
2007,05,04,17,42,12.60
2007,05,04,17,43,12.60